Torna al catalogo

STARLINK-36461

AttivoComunicazioniVLEO
NORAD 67316·PAYLOAD·🇺🇸 United States

Lanciato Jan 4, 2026 da Cape Canaveral Space Force Station

Loading…

Prossimi Passaggi (prossime 24 ore)

TLE

AggiornatoSource: CelesTrak SupGP

Epoca: Sep 15, 2026, 03:27 UTC

1 67316C 26002M   26258.14423611  .00042197  00000+0  15280-2 0  2586
2 67316  43.0026 335.0530 0001383 264.1646 205.7150 15.27564429    19

Traccia STARLINK-36461 in tempo reale con AllMySat

Download on the App Store